PGC77B LFMK-LFML

Flight info

Callsign PGC77B
Flight time 0h 42m
Altitude 25000
Route FJR
Aircraft PC12/L-SBDFGIRWY/LB2

Departure

Time 2026-05-04 19:42
Airport Carcassonne Salvaza Airport (LFMK)

Arrival

Time 2026-05-04 20:25
Airport Marseille Provence Airport (LFML)
Time Latitude Longitude Altitude Speed Heading
2026-05-04 19:30 43.21455 2.30304 425 ft 0 kts 96°
2026-05-04 19:38 43.21454 2.30326 424 ft 7 kts 83°
2026-05-04 19:38 43.21503 2.30416 424 ft 12 kts 46°
2026-05-04 19:39 43.21521 2.30504 423 ft 16 kts 101°
2026-05-04 19:39 43.21506 2.30668 420 ft 16 kts 104°
2026-05-04 19:39 43.21466 2.30849 417 ft 21 kts 95°
2026-05-04 19:39 43.21476 2.30997 414 ft 9 kts 75°
2026-05-04 19:40 43.21471 2.31121 412 ft 16 kts 96°
2026-05-04 19:40 43.21468 2.31257 411 ft 7 kts 118°
2026-05-04 19:40 43.21447 2.31381 409 ft 18 kts 96°
2026-05-04 19:40 43.21439 2.31499 407 ft 6 kts 95°
2026-05-04 19:41 43.21436 2.31608 403 ft 9 kts 45°
2026-05-04 19:41 43.21510 2.31607 403 ft 11 kts 293°
2026-05-04 19:41 43.21518 2.31541 406 ft 3 kts 274°
2026-05-04 19:41 43.21522 2.31485 408 ft 22 kts 278°
2026-05-04 19:42 43.21574 2.30909 441 ft 88 kts 272°
2026-05-04 19:42 43.21661 2.30030 763 ft 102 kts 274°
2026-05-04 19:42 43.21796 2.28936 1053 ft 127 kts 295°
2026-05-04 19:42 43.22442 2.28280 1769 ft 123 kts 341°
2026-05-04 19:43 43.23283 2.28512 2351 ft 134 kts 26°
2026-05-04 19:43 43.23813 2.29493 2904 ft 142 kts 62°
2026-05-04 19:43 43.24106 2.30788 3445 ft 146 kts 68°
2026-05-04 19:43 43.24386 2.32114 3993 ft 146 kts 68°
2026-05-04 19:44 43.24683 2.33450 4515 ft 148 kts 68°
2026-05-04 19:44 43.24990 2.34781 5029 ft 148 kts 68°
2026-05-04 19:44 43.25308 2.36147 5534 ft 150 kts 69°
2026-05-04 19:44 43.25624 2.37494 6014 ft 152 kts 70°
2026-05-04 19:45 43.25949 2.38884 6511 ft 152 kts 71°
2026-05-04 19:45 43.26265 2.40250 6991 ft 153 kts 71°
2026-05-04 19:45 43.26586 2.41629 7463 ft 153 kts 71°
2026-05-04 19:45 43.26908 2.43046 7987 ft 154 kts 73°
2026-05-04 19:46 43.27199 2.44437 8495 ft 155 kts 75°
2026-05-04 19:46 43.27487 2.45833 8978 ft 156 kts 75°
2026-05-04 19:46 43.27790 2.47301 9470 ft 157 kts 75°
2026-05-04 19:46 43.28089 2.48739 9956 ft 157 kts 75°
2026-05-04 19:47 43.28384 2.50158 10395 ft 159 kts 76°
2026-05-04 19:47 43.28684 2.51609 10832 ft 160 kts 77°
2026-05-04 19:47 43.28991 2.53096 11272 ft 161 kts 77°
2026-05-04 19:47 43.29298 2.54581 11711 ft 162 kts 77°
2026-05-04 19:48 43.29603 2.56048 12122 ft 162 kts 78°
2026-05-04 19:48 43.29910 2.57540 12537 ft 163 kts 78°
2026-05-04 19:48 43.30221 2.59043 12924 ft 164 kts 78°
2026-05-04 19:48 43.30531 2.60552 13311 ft 166 kts 78°
2026-05-04 19:49 43.30841 2.62059 13725 ft 165 kts 80°
2026-05-04 19:49 43.31157 2.63596 13921 ft 175 kts 79°
2026-05-04 19:49 43.31502 2.65290 13947 ft 192 kts 79°
2026-05-04 19:49 43.31874 2.67096 13958 ft 198 kts 79°
2026-05-04 19:50 43.32257 2.68947 13924 ft 201 kts 81°
2026-05-04 19:50 43.32635 2.70779 13920 ft 201 kts 79°
2026-05-04 19:50 43.33017 2.72637 13919 ft 200 kts 80°
2026-05-04 19:50 43.33387 2.74454 13910 ft 198 kts 79°
2026-05-04 19:51 43.33760 2.76276 13932 ft 195 kts 76°
2026-05-04 19:51 43.34128 2.78051 13914 ft 193 kts 79°
2026-05-04 19:51 43.34491 2.79825 13910 ft 189 kts 79°
2026-05-04 19:51 43.34842 2.81549 13919 ft 185 kts 80°
2026-05-04 19:52 43.35183 2.83232 13895 ft 181 kts 78°
2026-05-04 19:52 43.35520 2.84861 13911 ft 175 kts 81°
2026-05-04 19:52 43.35822 2.86471 13876 ft 168 kts 79°
2026-05-04 19:52 43.36363 2.87972 13733 ft 195 kts 49°
2026-05-04 19:53 43.37281 2.89096 14497 ft 165 kts 41°
2026-05-04 19:53 43.38142 2.90130 14843 ft 176 kts 45°
2026-05-04 19:53 43.38800 2.91549 15068 ft 173 kts 86°
2026-05-04 19:53 43.38778 2.93085 15491 ft 165 kts 88°
2026-05-04 19:54 43.39120 2.94695 15665 ft 180 kts 78°
2026-05-04 19:54 43.39504 2.96329 15990 ft 179 kts 79°
2026-05-04 19:54 43.39867 2.97968 16293 ft 179 kts 81°
2026-05-04 19:54 43.40206 2.99630 16514 ft 182 kts 81°
2026-05-04 19:55 43.40537 3.01299 16795 ft 183 kts 81°
2026-05-04 19:55 43.40842 3.02909 17034 ft 185 kts 82°
2026-05-04 19:55 43.41165 3.04617 17317 ft 185 kts 82°
2026-05-04 19:55 43.41488 3.06337 17580 ft 186 kts 82°
2026-05-04 19:56 43.41807 3.08061 17836 ft 186 kts 83°
2026-05-04 19:56 43.42131 3.09811 18097 ft 187 kts 83°
2026-05-04 19:56 43.42448 3.11534 18345 ft 188 kts 83°
2026-05-04 19:56 43.42771 3.13302 18564 ft 190 kts 83°
2026-05-04 19:57 43.43094 3.15062 18797 ft 191 kts 83°
2026-05-04 19:57 43.43418 3.16838 19054 ft 190 kts 83°
2026-05-04 19:57 43.43741 3.18595 19295 ft 191 kts 84°
2026-05-04 19:57 43.44065 3.20370 19525 ft 191 kts 83°
2026-05-04 19:58 43.44390 3.22170 19748 ft 193 kts 83°
2026-05-04 19:58 43.44711 3.23935 19978 ft 193 kts 83°
2026-05-04 19:58 43.45044 3.25762 20169 ft 196 kts 83°
2026-05-04 19:58 43.45371 3.27558 20444 ft 194 kts 83°
2026-05-04 19:59 43.45696 3.29332 20680 ft 195 kts 83°
2026-05-04 19:59 43.46022 3.31148 20904 ft 198 kts 83°
2026-05-04 19:59 43.46364 3.33053 20930 ft 210 kts 83°
2026-05-04 19:59 43.46722 3.35047 20929 ft 222 kts 82°
2026-05-04 20:00 43.47106 3.37182 20932 ft 231 kts 82°
2026-05-04 20:00 43.47501 3.39345 20929 ft 239 kts 82°
2026-05-04 20:00 43.47906 3.41592 20930 ft 245 kts 82°
2026-05-04 20:00 43.48325 3.43911 20927 ft 249 kts 82°
2026-05-04 20:01 43.48742 3.46217 20926 ft 253 kts 81°
2026-05-04 20:01 43.49173 3.48611 20925 ft 256 kts 81°
2026-05-04 20:01 43.49602 3.50990 20924 ft 258 kts 82°
2026-05-04 20:01 43.50034 3.53391 20927 ft 260 kts 82°
2026-05-04 20:02 43.50468 3.55819 20924 ft 261 kts 82°
2026-05-04 20:02 43.50905 3.58270 20924 ft 263 kts 81°
2026-05-04 20:02 43.51344 3.60718 20927 ft 264 kts 82°
2026-05-04 20:02 43.51783 3.63169 20926 ft 264 kts 82°
2026-05-04 20:03 43.52225 3.65656 20927 ft 265 kts 82°
2026-05-04 20:03 43.52662 3.68120 20924 ft 265 kts 82°
2026-05-04 20:03 43.53100 3.70580 20926 ft 266 kts 82°
2026-05-04 20:03 43.53544 3.73077 20928 ft 266 kts 82°
2026-05-04 20:04 43.53982 3.75563 20927 ft 267 kts 82°
2026-05-04 20:04 43.54419 3.78032 20925 ft 267 kts 82°
2026-05-04 20:04 43.54860 3.80525 20928 ft 267 kts 82°
2026-05-04 20:04 43.55304 3.83042 20928 ft 268 kts 82°
2026-05-04 20:05 43.55744 3.85533 20931 ft 268 kts 82°
2026-05-04 20:05 43.56186 3.88043 20931 ft 269 kts 82°
2026-05-04 20:05 43.56620 3.90521 20934 ft 269 kts 82°
2026-05-04 20:05 43.57065 3.93059 20932 ft 269 kts 82°
2026-05-04 20:06 43.57500 3.95567 20927 ft 269 kts 84°
2026-05-04 20:06 43.57367 3.98018 20930 ft 252 kts 114°
2026-05-04 20:06 43.56708 4.00222 20931 ft 248 kts 122°
2026-05-04 20:06 43.55937 4.02340 20930 ft 248 kts 124°
2026-05-04 20:07 43.55138 4.04443 20930 ft 248 kts 124°
2026-05-04 20:07 43.54334 4.06542 20930 ft 248 kts 124°
2026-05-04 20:07 43.53498 4.08713 20482 ft 266 kts 124°
2026-05-04 20:07 43.52618 4.10992 19988 ft 277 kts 124°
2026-05-04 20:08 43.51702 4.13367 19482 ft 280 kts 123°
2026-05-04 20:08 43.50786 4.15739 18976 ft 279 kts 123°
2026-05-04 20:08 43.49882 4.18077 18480 ft 277 kts 123°
2026-05-04 20:08 43.48974 4.20426 17982 ft 276 kts 123°
2026-05-04 20:09 43.48076 4.22745 17487 ft 276 kts 123°
2026-05-04 20:09 43.47175 4.25061 16988 ft 275 kts 122°
2026-05-04 20:09 43.46276 4.27375 16502 ft 273 kts 123°
2026-05-04 20:09 43.45387 4.29677 16009 ft 272 kts 122°
2026-05-04 20:10 43.44505 4.31942 15516 ft 269 kts 122°
2026-05-04 20:10 43.43624 4.34202 15049 ft 265 kts 124°
2026-05-04 20:10 43.42772 4.36399 14933 ft 248 kts 124°
2026-05-04 20:10 43.41983 4.38418 14959 ft 231 kts 124°
2026-05-04 20:11 43.41253 4.40299 14933 ft 221 kts 123°
2026-05-04 20:11 43.40529 4.42169 14892 ft 220 kts 124°
2026-05-04 20:11 43.39791 4.44023 14928 ft 218 kts 125°
2026-05-04 20:11 43.39085 4.45843 14916 ft 217 kts 123°
2026-05-04 20:12 43.38367 4.47677 14724 ft 222 kts 124°
2026-05-04 20:12 43.37619 4.49614 14389 ft 237 kts 118°
2026-05-04 20:12 43.37001 4.51761 14043 ft 251 kts 108°
2026-05-04 20:12 43.37244 4.54173 13728 ft 267 kts 66°
2026-05-04 20:13 43.38278 4.56308 13354 ft 274 kts 56°
2026-05-04 20:13 43.39424 4.58401 12859 ft 285 kts 54°
2026-05-04 20:13 43.40658 4.60604 12319 ft 285 kts 54°
2026-05-04 20:13 43.41878 4.62751 11712 ft 287 kts 54°
2026-05-04 20:14 43.43111 4.64938 11088 ft 288 kts 54°
2026-05-04 20:14 43.44339 4.67101 10468 ft 287 kts 54°
2026-05-04 20:14 43.45558 4.69252 9841 ft 283 kts 55°
2026-05-04 20:14 43.46762 4.71373 9217 ft 280 kts 55°
2026-05-04 20:15 43.47932 4.73416 8601 ft 268 kts 54°
2026-05-04 20:15 43.49074 4.75382 7981 ft 260 kts 55°
2026-05-04 20:15 43.50200 4.77296 7353 ft 254 kts 54°
2026-05-04 20:15 43.51300 4.79151 6733 ft 249 kts 55°
2026-05-04 20:16 43.52405 4.80984 6104 ft 246 kts 55°
2026-05-04 20:16 43.53497 4.82748 5483 ft 243 kts 53°
2026-05-04 20:16 43.54952 4.83840 5019 ft 244 kts 10°
2026-05-04 20:16 43.56594 4.83954 4966 ft 226 kts
2026-05-04 20:17 43.58144 4.83961 4964 ft 218 kts
2026-05-04 20:17 43.59629 4.83981 4957 ft 210 kts 13°
2026-05-04 20:17 43.60823 4.84915 4810 ft 194 kts 59°
2026-05-04 20:17 43.61274 4.86589 4566 ft 186 kts 88°
2026-05-04 20:18 43.61424 4.88362 4320 ft 187 kts 92°
2026-05-04 20:18 43.61531 4.90156 4074 ft 190 kts 92°
2026-05-04 20:18 43.61632 4.91985 3971 ft 186 kts 93°
2026-05-04 20:18 43.61733 4.93721 3965 ft 179 kts 93°
2026-05-04 20:19 43.61534 4.95316 3964 ft 162 kts 124°
2026-05-04 20:19 43.60892 4.96571 3970 ft 158 kts 129°
2026-05-04 20:19 43.60196 4.97731 3970 ft 156 kts 131°
2026-05-04 20:19 43.59478 4.98864 3970 ft 155 kts 133°
2026-05-04 20:20 43.58748 4.99970 3929 ft 162 kts 134°
2026-05-04 20:20 43.57952 5.01138 3740 ft 171 kts 133°
2026-05-04 20:20 43.57117 5.02356 3529 ft 178 kts 134°
2026-05-04 20:20 43.56240 5.03616 3297 ft 182 kts 133°
2026-05-04 20:21 43.55358 5.04873 3055 ft 185 kts 133°
2026-05-04 20:21 43.54456 5.06173 2797 ft 187 kts 133°
2026-05-04 20:21 43.52613 5.08787 2283 ft 192 kts 130°
2026-05-04 20:22 43.51683 5.10112 2018 ft 194 kts 130°
2026-05-04 20:22 43.50742 5.11456 1746 ft 193 kts 130°
2026-05-04 20:22 43.49820 5.12773 1484 ft 190 kts 130°
2026-05-04 20:22 43.48899 5.14072 1220 ft 181 kts 130°
2026-05-04 20:23 43.48064 5.15254 981 ft 158 kts 129°
2026-05-04 20:23 43.47355 5.16268 780 ft 132 kts 129°
2026-05-04 20:23 43.46818 5.17030 633 ft 102 kts 128°
2026-05-04 20:23 43.46345 5.17684 365 ft 99 kts 126°
2026-05-04 20:24 43.45882 5.18353 313 ft 85 kts 128°
2026-05-04 20:24 43.45519 5.18860 239 ft 73 kts 123°
2026-05-04 20:24 43.45170 5.19369 164 ft 75 kts 126°
2026-05-04 20:24 43.44821 5.19852 67 ft 76 kts 124°
2026-05-04 20:25 43.44519 5.20296 3 ft 47 kts 132°
2026-05-04 20:25 43.44331 5.20579 6 ft 30 kts 134°
2026-05-04 20:25 43.44187 5.20787 7 ft 32 kts 134°
2026-05-04 20:25 43.44120 5.20965 9 ft 13 kts 69°
2026-05-04 20:26 43.44146 5.21032 10 ft 7 kts 60°
2026-05-04 20:26 43.44167 5.21083 10 ft 7 kts 60°
2026-05-04 20:26 43.44199 5.21163 9 ft 10 kts 61°
2026-05-04 20:26 43.44239 5.21253 9 ft 11 kts 49°
2026-05-04 20:27 43.44279 5.21349 8 ft 11 kts 64°
2026-05-04 20:27 43.44325 5.21420 7 ft 10 kts 341°
2026-05-04 20:27 43.44400 5.21381 6 ft 9 kts 335°
2026-05-04 20:27 43.44408 5.21367 5 ft 1 kts 233°